WI1SKY Weather Reports


Display with metric or nautical units.
time (UTC)temp
F
wind
direction
speed
MPH
gust
MPH
rain 1hr
in
rain 24hr
in
rain mn
in
humidity
%
barometer
mb
20260504174902 71 266 8.0 16.0 0.00 0.00 0.00 43 995.6
20260504174402 71 232 10.0 16.0 0.00 0.00 0.00 46 995.7
20260504173902 71 297 10.0 15.0 0.00 0.00 0.00 45 995.6
20260504173408 71 294 11.0 15.0 0.00 0.00 0.00 44 995.6
20260504172902 71 272 12.0 16.0 0.00 0.00 0.00 42 995.5
20260504172406 72 303 11.0 17.0 0.00 0.00 0.00 43 995.5
20260504171902 73 312 11.0 17.0 0.00 0.00 0.00 43 995.4
20260504171401 73 302 11.0 17.0 0.00 0.00 0.00 40 995.5
20260504170903 74 296 10.0 17.0 0.00 0.00 0.00 41 995.4
20260504170621 74 301 8.0 14.0 0.00 0.00 0.00 40 995.2
20260504170434 74 302 8.0 17.0 0.00 0.00 0.00 39 995.3
20260504160437 71 279 7.0 12.0 0.00 0.00 0.00 39 995.5
20260504150903 70 252 5.0 12.0 0.00 0.00 0.00 43 995.7
20260504150403 70 299 5.0 12.0 0.00 0.00 0.00 42 995.8
20260504140905 67 232 6.0 11.0 0.00 0.00 0.00 43 996.0
20260504140401 66 237 6.0 12.0 0.00 0.00 0.00 43 996.1
20260504130401 60 304 4.0 7.0 0.00 0.00 0.00 50 996.7
20260504110500 50 162 1.0 2.0 0.00 0.00 0.00 60 997.4
20260504081829 46 300 0.0 0.0 0.00 0.00 0.00 74 999.8
20260504081330 46 300 0.0 0.0 0.00 0.00 0.00 74 999.8
20260504080833 46 300 0.0 0.0 0.00 0.00 0.00 74 999.9
20260504080329 46 300 0.0 0.0 0.00 0.00 0.00 74 999.9
20260504045802 53 300 1.0 2.0 0.00 0.00 0.00 59 1002.5
20260504045426 54 300 0.0 2.0 0.00 0.00 0.00 57 1002.5
20260504045317 54 300 0.0 2.0 0.00 0.00 0.00 58 1002.5
20260504044303 54 300 0.0 1.0 0.00 0.00 0.00 57 1002.5
20260504043803 55 300 0.0 1.0 0.00 0.00 0.00 56 1002.5
20260504043306 55 300 0.0 1.0 0.00 0.00 0.00 55 1002.6
20260504042803 55 300 0.0 2.0 0.00 0.00 0.00 55 1002.6
20260504042412 56 300 0.0 1.0 0.00 0.00 0.00 53 1002.6
20260504042317 56 300 0.0 2.0 0.00 0.00 0.00 54 1002.6
20260504041302 56 300 0.0 1.0 0.00 0.00 0.00 52 1002.6
20260504040803 57 300 0.0 1.0 0.00 0.00 0.00 50 1002.7
20260504040303 57 300 0.0 1.0 0.00 0.00 0.00 49 1002.7
20260504035807 57 300 0.0 1.0 0.00 0.00 0.00 49 1002.7
20260504035306 58 300 0.0 1.0 0.00 0.00 0.00 49 1002.8
20260504034801 58 300 0.0 2.0 0.00 0.00 0.00 48 1002.8
20260504034603 58 300 0.0 1.0 0.00 0.00 0.00 47 1002.8
20260504034539 59 300 0.0 1.0 0.00 0.00 0.00 46 1002.9
20260504034350 58 300 1.0 2.0 0.00 0.00 0.00 47 1002.8
20260504032801 59 300 0.0 1.0 0.00 0.00 0.00 46 1003.0
20260504032301 59 300 0.0 1.0 0.00 0.00 0.00 45 1003.0
20260504031801 59 300 1.0 1.0 0.00 0.00 0.00 45 1003.1
20260504031301 59 300 0.0 1.0 0.00 0.00 0.00 45 1003.1
20260504030802 60 300 0.0 2.0 0.00 0.00 0.00 44 1003.2
20260504030305 60 300 1.0 2.0 0.00 0.00 0.00 44 1003.2
20260504025801 60 300 0.0 2.0 0.00 0.00 0.00 44 1003.3
20260504025306 60 300 0.0 2.0 0.00 0.00 0.00 42 1003.3
20260504025021 61 300 0.0 1.0 0.00 0.00 0.00 41 1003.3
20260504025010 61 300 0.0 1.0 0.00 0.00 0.00 41 1003.2
20260504024842 61 300 0.0 1.0 0.00 0.00 0.00 41 1003.3
20260504023303 61 300 1.0 2.0 0.00 0.00 0.00 40 1003.2
20260504022800 62 300 1.0 2.0 0.00 0.00 0.00 40 1003.2
20260504022304 62 300 1.0 3.0 0.00 0.00 0.00 41 1003.1
20260504021801 62 300 2.0 4.0 0.00 0.00 0.00 41 1003.1
20260504021300 62 300 3.0 4.0 0.00 0.00 0.00 41 1003.0
20260504020804 62 300 4.0 4.0 0.00 0.00 0.00 41 1003.0
20260504020302 62 300 3.0 4.0 0.00 0.00 0.00 42 1003.0
20260504015803 62 300 2.0 4.0 0.00 0.00 0.00 42 1002.9
20260504015304 62 300 2.0 3.0 0.00 0.00 0.00 42 1002.9
20260504014808 62 300 2.0 3.0 0.00 0.00 0.00 44 1002.9
20260504014302 62 300 1.0 3.0 0.00 0.00 0.00 43 1002.8
20260504013805 63 300 1.0 2.0 0.00 0.00 0.00 41 1002.7
20260504013545 63 300 2.0 3.0 0.00 0.00 0.00 40 1002.6
20260504013336 63 300 1.0 2.0 0.00 0.00 0.00 40 1002.6
20260504012540 65 300 3.0 3.0 0.00 0.00 0.00 41 1002.6
20260504012336 64 300 3.0 3.0 0.00 0.00 0.00 43 1002.6
20260504011657 66 300 3.0 4.0 0.00 0.00 0.00 36 1002.6
20260504011411 65 300 3.0 4.0 0.00 0.00 0.00 39 1002.6
20260504010836 66 300 3.0 4.0 0.00 0.00 0.00 36 1002.6
20260504005801 66 300 3.0 4.0 0.00 0.00 0.00 36 1002.5
20260504005304 66 300 3.0 5.0 0.00 0.00 0.00 36 1002.4
20260504004800 67 296 4.0 5.0 0.00 0.00 0.00 37 1002.4
20260504004301 67 300 4.0 7.0 0.00 0.00 0.00 36 1002.4
20260504003803 67 306 5.0 7.0 0.00 0.00 0.00 36 1002.4
20260504003301 67 307 5.0 8.0 0.00 0.00 0.00 37 1002.4
20260504002801 67 306 5.0 8.0 0.00 0.00 0.00 37 1002.4
20260504002303 67 296 4.0 7.0 0.00 0.00 0.00 37 1002.4
20260504001801 68 294 4.0 7.0 0.00 0.00 0.00 39 1002.4
20260504001305 68 294 4.0 8.0 0.00 0.00 0.00 39 1002.3
20260504000800 68 299 4.0 8.0 0.00 0.00 0.00 38 1002.4
20260504000520 69 297 6.0 10.0 0.00 0.00 0.00 36 1002.4
20260504000334 68 281 5.0 8.0 0.00 0.00 0.00 39 1002.4
20260503235306 69 295 6.0 10.0 0.00 0.00 0.00 35 1002.3
20260503234801 69 292 5.0 9.0 0.00 0.00 0.00 36 1002.3
20260503234300 69 294 5.0 9.0 0.00 0.00 0.00 37 1002.3
20260503233800 69 296 6.0 9.0 0.00 0.00 0.00 36 1002.4
20260503233301 70 299 5.0 9.0 0.00 0.00 0.00 36 1002.4
20260503232800 70 306 5.0 8.0 0.00 0.00 0.00 37 1002.4
20260503232526 71 314 5.0 11.0 0.00 0.00 0.00 37 1002.2
20260503232333 70 304 7.0 11.0 0.00 0.00 0.00 38 1002.3
20260503231300 71 310 4.0 10.0 0.00 0.00 0.00 37 1002.2
20260503230802 71 284 5.0 7.0 0.00 0.00 0.00 37 1002.3
20260503230301 71 296 6.0 9.0 0.00 0.00 0.00 36 1002.3
20260503225801 71 293 7.0 11.0 0.00 0.00 0.00 35 1002.2
20260503225304 71 298 7.0 11.0 0.00 0.00 0.00 35 1002.2
20260503224801 71 293 7.0 11.0 0.00 0.00 0.00 36 1002.2
20260503224301 71 308 6.0 10.0 0.00 0.00 0.00 35 1002.0
20260503223801 71 313 7.0 10.0 0.00 0.00 0.00 37 1002.2
20260503223300 72 293 7.0 10.0 0.00 0.00 0.00 35 1002.0
20260503222801 72 299 7.0 11.0 0.00 0.00 0.00 38 1002.0
20260503222726 72 296 5.0 10.0 0.00 0.00 0.00 36 1002.0
20260503222708 72 281 5.0 9.0 0.00 0.00 0.00 39 1001.9
20260503222403 72 311 7.0 11.0 0.00 0.00 0.00 36 1001.9
20260503220801 72 294 5.0 12.0 0.00 0.00 0.00 38 1001.9
20260503220300 73 297 6.0 12.0 0.00 0.00 0.00 35 1002.0
20260503215805 73 288 5.0 11.0 0.00 0.00 0.00 36 1001.9
20260503215301 73 291 5.0 10.0 0.00 0.00 0.00 37 1002.0
20260503214801 73 289 6.0 10.0 0.00 0.00 0.00 36 1001.9
20260503214549 74 306 7.0 11.0 0.00 0.00 0.00 34 1002.0
20260503214343 73 304 7.0 11.0 0.00 0.00 0.00 35 1002.0
20260503213304 74 311 5.0 11.0 0.00 0.00 0.00 32 1002.2
20260503213036 74 283 5.0 10.0 0.00 0.00 0.00 39 1002.2
20260503212826 74 321 5.0 10.0 0.00 0.00 0.00 34 1002.2
20260503211809 74 196 5.0 9.0 0.00 0.00 0.00 35 1002.2
20260503211302 74 289 6.0 10.0 0.00 0.00 0.00 37 1002.4
20260503210803 74 290 6.0 10.0 0.00 0.00 0.00 36 1002.3
20260503210305 74 306 5.0 9.0 0.00 0.00 0.00 35 1002.3
20260503205936 74 284 6.0 11.0 0.00 0.00 0.00 36 1002.3
20260503205924 74 294 6.0 11.0 0.00 0.00 0.00 37 1002.3
20260503205853 74 290 6.0 10.0 0.00 0.00 0.00 36 1002.4
20260503205811 74 279 5.0 9.0 0.00 0.00 0.00 42 1002.3
20260503205437 74 292 5.0 9.0 0.00 0.00 0.00 37 1002.3
20260503203719 74 300 4.0 8.0 0.00 0.00 0.00 37 1002.5
20260503203421 75 303 5.0 10.0 0.00 0.00 0.00 37 1002.4
20260503202838 75 301 4.0 8.0 0.00 0.00 0.00 35 1002.4
20260503201801 74 308 6.0 9.0 0.00 0.00 0.00 40 1002.5
20260503201303 74 294 5.0 9.0 0.00 0.00 0.00 36 1002.4
20260503200802 74 266 3.0 9.0 0.00 0.00 0.00 38 1002.5
20260503200304 74 237 4.0 10.0 0.00 0.00 0.00 38 1002.5
20260503195801 74 259 4.0 10.0 0.00 0.00 0.00 41 1002.6
20260503195307 74 223 4.0 10.0 0.00 0.00 0.00 37 1002.7
20260503194820 73 281 5.0 10.0 0.00 0.00 0.00 40 1003.0
20260503194806 74 217 3.0 9.0 0.00 0.00 0.00 39 1002.7
20260503194755 74 288 4.0 11.0 0.00 0.00 0.00 43 1002.8
20260503194421 74 292 3.0 9.0 0.00 0.00 0.00 42 1002.7
20260503193321 73 292 5.0 11.0 0.00 0.00 0.00 40 1002.9
20260503192248 72 298 4.0 10.0 0.00 0.00 0.00 42 1003.1
20260503191948 72 235 5.0 10.0 0.00 0.00 0.00 39 1003.1
20260503191814 72 264 5.0 10.0 0.00 0.00 0.00 40 1003.1
20260503190751 72 224 5.0 10.0 0.00 0.00 0.00 39 1003.1
20260503190250 72 225 4.0 10.0 0.00 0.00 0.00 42 1003.3
20260503185750 72 221 4.0 10.0 0.00 0.00 0.00 38 1003.3
20260503185246 72 204 3.0 8.0 0.00 0.00 0.00 39 1003.3
20260503184746 71 264 3.0 8.0 0.00 0.00 0.00 43 1003.3
20260503184247 71 269 4.0 9.0 0.00 0.00 0.00 44 1003.3
20260503183747 70 268 5.0 9.0 0.00 0.00 0.00 38 1003.4
20260503183438 71 218 4.0 12.0 0.00 0.00 0.00 39 1003.5
20260503183309 70 248 5.0 9.0 0.00 0.00 0.00 38 1003.4
20260503182455 71 228 4.0 12.0 0.00 0.00 0.00 39 1003.6
20260503182313 71 207 4.0 12.0 0.00 0.00 0.00 40 1003.6
20260503181243 71 253 4.0 12.0 0.00 0.00 0.00 38 1003.7
20260503180740 71 294 4.0 8.0 0.00 0.00 0.00 41 1003.7
20260503180239 70 292 4.0 10.0 0.00 0.00 0.00 41 1003.7
20260503175742 70 267 4.0 10.0 0.00 0.00 0.00 41 1003.8